Location: Unspecified
(0.0000°N, 0.0000°E)
Time: 07:49:57
(UTC+00:00)

Courier 1B Rocket - Pass Details

Date: 13 December 2018
Orbit: 920 x 1202 km, 28.2° (Epoch: 18 March)

Event Time Altitude Azimuth Distance (km) Brightness Sun altitude
Rises 17:46:19 0° 301° (WNW) 4,084 8.8 1.8°
Reaches altitude 10° 17:49:10 10° 301° (WNW) 3,126 8.2 1.2°
Maximum altitude 17:57:02 89° 28° (NNE) 1,188 5.6 -0.6°
Drops below altitude 10° 18:04:40 10° 120° (ESE) 3,041 7.2 -2.4°
Sets 18:07:24 0° 120° (ESE) 3,969 7.8 -3.0°
